SCF315 ZUCK-ZJSY

Flight info

Callsign SCF315
Flight time 2h 0m
Altitude 33100
Route VILUS1Z VILUS W180 ELBAV W181 DUDIT A599 LBN W159 BHY W70 NYB G221 WL
Aircraft B789/H-SDE1E2E3FGHIJ2J3J4J5M1RWXY/LB1D1

Departure

Time 2026-04-27 06:24
Airport Chongqing Jiangbei International Airport (ZUCK)

Arrival

Time 2026-04-27 08:25
Airport Sanya Phoenix International Airport (ZJSY)
Time Latitude Longitude Altitude Speed Heading
2026-04-27 06:12 29.71485 106.66159 1348 ft 0 kts 17°
2026-04-27 06:23 29.71540 106.66178 1346 ft 36 kts 17°
2026-04-27 06:24 29.72050 106.66353 1338 ft 119 kts 17°
2026-04-27 06:24 29.73093 106.66706 1473 ft 177 kts 13°
2026-04-27 06:24 29.74197 106.67107 2687 ft 153 kts 18°
2026-04-27 06:24 29.75219 106.67464 3316 ft 170 kts 14°
2026-04-27 06:25 29.76450 106.67896 3799 ft 202 kts 20°
2026-04-27 06:25 29.77744 106.68812 4366 ft 234 kts 32°
2026-04-27 06:25 29.79181 106.69846 5039 ft 260 kts 30°
2026-04-27 06:25 29.80808 106.70990 5943 ft 274 kts 30°
2026-04-27 06:26 29.82450 106.72148 7089 ft 280 kts 30°
2026-04-27 06:26 29.85321 106.74772 9102 ft 292 kts 58°
2026-04-27 06:26 29.86013 106.76988 10139 ft 299 kts 85°
2026-04-27 06:27 29.85786 106.79436 10719 ft 320 kts 107°
2026-04-27 06:27 29.85117 106.81955 11096 ft 347 kts 109°
2026-04-27 06:28 29.84374 106.84536 11457 ft 371 kts 109°
2026-04-27 06:28 29.83628 106.87324 12465 ft 373 kts 107°
2026-04-27 06:28 29.83136 106.89242 13088 ft 378 kts 107°
2026-04-27 06:29 29.82408 106.92037 13952 ft 384 kts 108°
2026-04-27 06:29 29.81553 106.94955 14762 ft 388 kts 116°
2026-04-27 06:29 29.80015 106.97497 15610 ft 390 kts 137°
2026-04-27 06:30 29.77828 106.99349 16481 ft 392 kts 155°
2026-04-27 06:30 29.75242 107.00313 17327 ft 394 kts 174°
2026-04-27 06:30 29.72506 107.00302 18114 ft 396 kts 192°
2026-04-27 06:30 29.69837 106.99503 18812 ft 398 kts 199°
2026-04-27 06:31 29.67206 106.98491 19562 ft 401 kts 200°
2026-04-27 06:31 29.64571 106.97505 20286 ft 405 kts 199°
2026-04-27 06:31 29.61853 106.96606 20986 ft 409 kts 195°
2026-04-27 06:31 29.59005 106.96238 21632 ft 415 kts 183°
2026-04-27 06:32 29.56102 106.96193 22189 ft 420 kts 182°
2026-04-27 06:32 29.53168 106.96192 22850 ft 423 kts 182°
2026-04-27 06:32 29.50208 106.96167 23466 ft 427 kts 183°
2026-04-27 06:32 29.47225 106.96116 23973 ft 431 kts 183°
2026-04-27 06:33 29.44227 106.96071 24470 ft 434 kts 183°
2026-04-27 06:33 29.41229 106.96041 24942 ft 437 kts 182°
2026-04-27 06:33 29.38890 106.96018 25293 ft 439 kts 183°
2026-04-27 06:33 29.35823 106.95979 25732 ft 443 kts 183°
2026-04-27 06:34 29.35298 106.95972 25808 ft 443 kts 183°
2026-04-27 06:34 29.32200 106.95931 26241 ft 446 kts 183°
2026-04-27 06:34 29.29087 106.95894 26730 ft 449 kts 183°
2026-04-27 06:34 29.27435 106.95875 26981 ft 452 kts 183°
2026-04-27 06:35 29.24291 106.95838 27413 ft 455 kts 183°
2026-04-27 06:35 29.21098 106.95798 27826 ft 459 kts 183°
2026-04-27 06:35 29.17940 106.95760 28222 ft 462 kts 183°
2026-04-27 06:35 29.14717 106.95721 28618 ft 465 kts 183°
2026-04-27 06:36 29.11483 106.95682 28997 ft 468 kts 183°
2026-04-27 06:36 29.08216 106.95642 29373 ft 470 kts 183°
2026-04-27 06:36 29.04929 106.95603 29740 ft 473 kts 183°
2026-04-27 06:36 29.01636 106.95563 30082 ft 476 kts 183°
2026-04-27 06:37 28.98315 106.95523 30385 ft 479 kts 183°
2026-04-27 06:37 28.94971 106.95483 30666 ft 482 kts 183°
2026-04-27 06:37 28.91613 106.95443 30944 ft 484 kts 183°
2026-04-27 06:37 28.88271 106.95403 31189 ft 487 kts 183°
2026-04-27 06:38 28.84877 106.95362 31440 ft 489 kts 183°
2026-04-27 06:38 28.81468 106.95321 31681 ft 491 kts 183°
2026-04-27 06:38 28.78044 106.95280 31923 ft 493 kts 183°
2026-04-27 06:38 28.74607 106.95239 32169 ft 495 kts 183°
2026-04-27 06:39 28.71151 106.95197 32375 ft 498 kts 183°
2026-04-27 06:39 28.67677 106.95156 32618 ft 500 kts 183°
2026-04-27 06:39 28.64189 106.95115 32851 ft 501 kts 183°
2026-04-27 06:39 28.60704 106.95074 33192 ft 501 kts 183°
2026-04-27 06:40 28.57265 106.95033 33523 ft 500 kts 183°
2026-04-27 06:40 28.53785 106.94991 33883 ft 500 kts 183°
2026-04-27 06:40 28.50310 106.94950 34197 ft 499 kts 183°
2026-04-27 06:40 28.46838 106.94909 34478 ft 499 kts 183°
2026-04-27 06:41 28.43373 106.94868 34767 ft 498 kts 183°
2026-04-27 06:41 28.39907 106.94827 35020 ft 498 kts 183°
2026-04-27 06:41 28.36441 106.94786 35317 ft 498 kts 183°
2026-04-27 06:41 28.32981 106.94745 35601 ft 497 kts 184°
2026-04-27 06:42 28.29532 106.94704 35878 ft 496 kts 184°
2026-04-27 06:42 28.26121 106.94665 36179 ft 496 kts 184°
2026-04-27 06:42 28.22682 106.94711 36478 ft 496 kts 179°
2026-04-27 06:42 28.19260 106.94918 36759 ft 496 kts 180°
2026-04-27 06:43 28.15791 106.95100 37037 ft 495 kts 181°
2026-04-27 06:43 28.12335 106.95283 37021 ft 499 kts 180°
2026-04-27 06:43 28.05435 106.95680 37026 ft 494 kts 180°
2026-04-27 06:44 27.98585 106.96034 37023 ft 493 kts 181°
2026-04-27 06:44 27.91783 106.96394 37020 ft 493 kts 180°
2026-04-27 06:45 27.84985 106.96754 37019 ft 494 kts 181°
2026-04-27 06:45 27.78097 106.97115 37019 ft 494 kts 181°
2026-04-27 06:46 27.71284 106.97475 37018 ft 495 kts 181°
2026-04-27 06:46 27.64451 106.97833 37031 ft 495 kts 181°
2026-04-27 06:47 27.57560 106.98195 37028 ft 496 kts 181°
2026-04-27 06:47 27.50649 106.98556 37027 ft 497 kts 181°
2026-04-27 06:48 27.43740 106.98923 37030 ft 496 kts 181°
2026-04-27 06:48 27.37157 106.99283 37024 ft 495 kts 181°
2026-04-27 06:49 27.30287 106.99651 37026 ft 494 kts 181°
2026-04-27 06:49 27.23416 107.00022 37037 ft 495 kts 181°
2026-04-27 06:50 27.16522 107.00393 37036 ft 496 kts 181°
2026-04-27 06:50 27.09667 107.00762 37037 ft 497 kts 181°
2026-04-27 06:51 27.02751 107.01134 37041 ft 497 kts 181°
2026-04-27 06:51 26.95811 107.01505 37045 ft 499 kts 181°
2026-04-27 06:52 26.88896 107.01862 37049 ft 497 kts 182°
2026-04-27 06:52 26.81987 107.02177 37048 ft 496 kts 181°
2026-04-27 06:53 26.75135 107.02540 37053 ft 497 kts 181°
2026-04-27 06:53 26.68224 107.02899 37049 ft 499 kts 182°
2026-04-27 06:54 26.61297 107.03258 37056 ft 499 kts 181°
2026-04-27 06:54 26.54718 107.03598 37060 ft 499 kts 182°
2026-04-27 06:55 26.48085 107.03931 37055 ft 499 kts 181°
2026-04-27 06:55 26.41070 107.04258 37061 ft 499 kts 183°
2026-04-27 06:56 26.34126 107.04756 37085 ft 506 kts 172°
2026-04-27 06:56 26.30726 107.05838 37063 ft 511 kts 161°
2026-04-27 06:56 26.27529 107.07588 37061 ft 514 kts 150°
2026-04-27 06:57 26.24647 107.09964 37062 ft 518 kts 139°
2026-04-27 06:57 26.22100 107.12697 37047 ft 519 kts 138°
2026-04-27 06:57 26.16951 107.18358 37033 ft 520 kts 137°
2026-04-27 06:58 26.09274 107.26759 37011 ft 520 kts 137°
2026-04-27 06:59 26.04112 107.32418 37008 ft 521 kts 137°
2026-04-27 06:59 25.98968 107.38031 37006 ft 522 kts 137°
2026-04-27 07:00 25.93816 107.43655 37004 ft 518 kts 137°
2026-04-27 07:00 25.88836 107.49080 36995 ft 516 kts 137°
2026-04-27 07:01 25.83702 107.54668 36991 ft 516 kts 137°
2026-04-27 07:01 25.78571 107.60243 36995 ft 516 kts 137°
2026-04-27 07:02 25.73449 107.65804 36977 ft 523 kts 137°
2026-04-27 07:02 25.68245 107.71469 36986 ft 523 kts 137°
2026-04-27 07:03 25.63099 107.77129 36986 ft 522 kts 137°
2026-04-27 07:03 25.57925 107.82770 36984 ft 522 kts 137°
2026-04-27 07:04 25.52791 107.88386 36987 ft 522 kts 137°
2026-04-27 07:04 25.47409 107.93709 37002 ft 518 kts 150°
2026-04-27 07:04 25.44238 107.95583 37003 ft 513 kts 162°
2026-04-27 07:05 25.40860 107.96771 37005 ft 507 kts 173°
2026-04-27 07:05 25.33902 107.97766 36987 ft 504 kts 178°
2026-04-27 07:06 25.27035 107.98584 36985 ft 503 kts 178°
2026-04-27 07:06 25.20080 107.99444 36977 ft 503 kts 178°
2026-04-27 07:07 25.13119 108.00287 36950 ft 503 kts 178°
2026-04-27 07:07 25.06196 108.01131 36960 ft 504 kts 178°
2026-04-27 07:08 24.99367 108.01961 36948 ft 504 kts 178°
2026-04-27 07:08 24.92383 108.02810 36942 ft 503 kts 178°
2026-04-27 07:09 24.85432 108.03654 36934 ft 503 kts 178°
2026-04-27 07:09 24.79944 108.04317 36932 ft 503 kts 178°
2026-04-27 07:10 24.74945 108.04924 36932 ft 504 kts 178°
2026-04-27 07:10 24.68017 108.05762 36934 ft 504 kts 178°
2026-04-27 07:11 24.62907 108.06380 36937 ft 504 kts 178°
2026-04-27 07:11 24.55980 108.07217 36940 ft 503 kts 178°
2026-04-27 07:12 24.49140 108.08045 36921 ft 506 kts 178°
2026-04-27 07:12 24.42154 108.08898 36929 ft 507 kts 178°
2026-04-27 07:13 24.35137 108.09749 36935 ft 507 kts 178°
2026-04-27 07:13 24.28126 108.10601 36943 ft 507 kts 178°
2026-04-27 07:14 24.21113 108.11451 36933 ft 506 kts 178°
2026-04-27 07:14 24.14162 108.12293 36939 ft 506 kts 178°
2026-04-27 07:15 24.07168 108.13139 36935 ft 506 kts 178°
2026-04-27 07:15 24.00172 108.13985 36930 ft 506 kts 178°
2026-04-27 07:16 23.93285 108.15659 36963 ft 516 kts 159°
2026-04-27 07:16 23.87256 108.19914 36979 ft 527 kts 137°
2026-04-27 07:16 23.84834 108.22918 36970 ft 529 kts 125°
2026-04-27 07:17 23.82954 108.26377 36969 ft 530 kts 114°
2026-04-27 07:17 23.81699 108.30141 36972 ft 529 kts 102°
2026-04-27 07:17 23.81101 108.34089 36977 ft 526 kts 91°
2026-04-27 07:18 23.80618 108.42068 36959 ft 526 kts 91°
2026-04-27 07:18 23.80190 108.49977 36941 ft 524 kts 91°
2026-04-27 07:19 23.79718 108.57916 36953 ft 525 kts 91°
2026-04-27 07:19 23.79265 108.65865 36946 ft 524 kts 91°
2026-04-27 07:20 23.78794 108.73805 36947 ft 524 kts 91°
2026-04-27 07:20 23.78331 108.81668 36957 ft 521 kts 91°
2026-04-27 07:21 23.77860 108.89543 36954 ft 518 kts 91°
2026-04-27 07:21 23.77392 108.97293 36963 ft 520 kts 93°
2026-04-27 07:21 23.76803 109.01202 36982 ft 523 kts 105°
2026-04-27 07:22 23.75537 109.04925 36981 ft 525 kts 117°
2026-04-27 07:22 23.73663 109.08319 36983 ft 525 kts 128°
2026-04-27 07:22 23.71273 109.11242 36986 ft 523 kts 140°
2026-04-27 07:22 23.68411 109.13650 36988 ft 517 kts 151°
2026-04-27 07:23 23.65231 109.15417 36984 ft 509 kts 163°
2026-04-27 07:23 23.58403 109.17037 36956 ft 502 kts 176°
2026-04-27 07:24 23.51471 109.17959 36970 ft 502 kts 177°
2026-04-27 07:24 23.44529 109.18868 36962 ft 501 kts 176°
2026-04-27 07:25 23.37680 109.19777 36965 ft 502 kts 176°
2026-04-27 07:25 23.30747 109.20685 36963 ft 502 kts 176°
2026-04-27 07:26 23.23810 109.21601 36968 ft 503 kts 176°
2026-04-27 07:26 23.16866 109.22511 36960 ft 502 kts 176°
2026-04-27 07:27 23.12420 109.23096 36962 ft 501 kts 176°
2026-04-27 07:29 23.10526 109.23345 36959 ft 501 kts 176°
2026-04-27 07:30 23.03606 109.24252 36956 ft 501 kts 176°
2026-04-27 07:30 22.96673 109.25160 36955 ft 502 kts 176°
2026-04-27 07:31 22.89826 109.26056 36955 ft 502 kts 176°
2026-04-27 07:31 22.82924 109.26958 36959 ft 503 kts 176°
2026-04-27 07:32 22.76040 109.27858 36962 ft 503 kts 176°
2026-04-27 07:32 22.69078 109.28767 36962 ft 504 kts 176°
2026-04-27 07:33 22.62169 109.29683 36964 ft 504 kts 176°
2026-04-27 07:33 22.55215 109.30598 36963 ft 503 kts 176°
2026-04-27 07:34 22.48249 109.31516 36964 ft 505 kts 176°
2026-04-27 07:34 22.41276 109.32434 36966 ft 504 kts 176°
2026-04-27 07:35 22.34365 109.33341 36964 ft 504 kts 176°
2026-04-27 07:35 22.27393 109.34257 36964 ft 508 kts 176°
2026-04-27 07:36 22.20312 109.35177 36978 ft 519 kts 176°
2026-04-27 07:36 22.13070 109.36120 36973 ft 529 kts 176°
2026-04-27 07:37 22.05751 109.37071 36978 ft 538 kts 176°
2026-04-27 07:37 21.98313 109.38037 36971 ft 540 kts 176°
2026-04-27 07:38 21.90856 109.39005 36963 ft 539 kts 176°
2026-04-27 07:38 21.83405 109.39968 36973 ft 543 kts 176°
2026-04-27 07:39 21.75965 109.40933 36976 ft 542 kts 176°
2026-04-27 07:39 21.68482 109.41899 36970 ft 541 kts 176°
2026-04-27 07:40 21.61007 109.42969 36979 ft 543 kts 169°
2026-04-27 07:40 21.57387 109.44197 36981 ft 550 kts 158°
2026-04-27 07:40 21.53971 109.46075 36993 ft 555 kts 152°
2026-04-27 07:41 21.47289 109.50207 36968 ft 549 kts 152°
2026-04-27 07:41 21.40714 109.54278 36970 ft 550 kts 152°
2026-04-27 07:42 21.34051 109.58328 36965 ft 550 kts 158°
2026-04-27 07:42 21.30489 109.59785 36980 ft 545 kts 169°
2026-04-27 07:42 21.26787 109.60566 36963 ft 540 kts 176°
2026-04-27 07:43 21.19374 109.61652 36966 ft 537 kts 177°
2026-04-27 07:43 21.12148 109.62689 36961 ft 537 kts 176°
2026-04-27 07:44 21.04737 109.63772 36962 ft 537 kts 176°
2026-04-27 07:44 20.97325 109.64839 36960 ft 538 kts 176°
2026-04-27 07:45 20.89901 109.65916 36956 ft 539 kts 176°
2026-04-27 07:45 20.82518 109.66980 36960 ft 539 kts 176°
2026-04-27 07:46 20.75085 109.68054 36961 ft 540 kts 176°
2026-04-27 07:46 20.67881 109.69092 36957 ft 540 kts 176°
2026-04-27 07:47 20.60459 109.70165 36941 ft 534 kts 177°
2026-04-27 07:47 20.53144 109.71463 36976 ft 539 kts 168°
2026-04-27 07:47 20.49641 109.72875 36972 ft 548 kts 157°
2026-04-27 07:48 20.46351 109.74927 36968 ft 555 kts 147°
2026-04-27 07:48 20.40293 109.80079 36959 ft 557 kts 144°
2026-04-27 07:49 20.34305 109.85310 36954 ft 555 kts 144°
2026-04-27 07:49 20.28347 109.90451 36939 ft 554 kts 144°
2026-04-27 07:50 20.22379 109.95633 36947 ft 553 kts 144°
2026-04-27 07:50 20.16404 110.00793 36949 ft 554 kts 144°
2026-04-27 07:51 20.10539 110.05709 36969 ft 549 kts 153°
2026-04-27 07:51 20.03664 110.08904 36964 ft 535 kts 172°
2026-04-27 07:52 19.96443 110.09569 36967 ft 518 kts 191°
2026-04-27 07:52 19.92922 110.08997 36957 ft 507 kts 200°
2026-04-27 07:52 19.89595 110.07875 36954 ft 496 kts 209°
2026-04-27 07:53 19.83331 110.04900 36949 ft 494 kts 211°
2026-04-27 07:53 19.78137 110.02380 36947 ft 494 kts 211°
2026-04-27 07:54 19.70849 109.98873 36937 ft 495 kts 210°
2026-04-27 07:54 19.65071 109.96088 36927 ft 494 kts 211°
2026-04-27 07:55 19.58870 109.93108 36929 ft 487 kts 211°
2026-04-27 07:55 19.52730 109.90151 36931 ft 490 kts 211°
2026-04-27 07:56 19.46525 109.87174 36930 ft 489 kts 211°
2026-04-27 07:56 19.40308 109.84188 36934 ft 490 kts 211°
2026-04-27 07:57 19.34445 109.81387 36929 ft 490 kts 211°
2026-04-27 07:57 19.30642 109.79596 36935 ft 484 kts 211°
2026-04-27 07:58 19.23472 109.76185 36940 ft 488 kts 211°
2026-04-27 07:58 19.17340 109.73127 36955 ft 487 kts 212°
2026-04-27 07:59 19.11201 109.70177 36943 ft 474 kts 211°
2026-04-27 07:59 19.06307 109.67870 36243 ft 458 kts 212°
2026-04-27 07:59 19.03419 109.66459 35608 ft 456 kts 212°
2026-04-27 08:00 18.99598 109.64632 34768 ft 454 kts 211°
2026-04-27 08:00 18.97647 109.63711 34328 ft 455 kts 212°
2026-04-27 08:00 18.94760 109.62338 33613 ft 455 kts 212°
2026-04-27 08:00 18.91884 109.60960 32922 ft 453 kts 212°
2026-04-27 08:01 18.89050 109.59605 32200 ft 452 kts 212°
2026-04-27 08:01 18.86185 109.58242 31439 ft 453 kts 212°
2026-04-27 08:01 18.83328 109.56884 30944 ft 447 kts 212°
2026-04-27 08:01 18.80528 109.55555 30771 ft 433 kts 212°
2026-04-27 08:02 18.77831 109.54275 30646 ft 418 kts 212°
2026-04-27 08:02 18.74399 109.52638 30458 ft 400 kts 213°
2026-04-27 08:02 18.70260 109.50666 30247 ft 379 kts 213°
2026-04-27 08:03 18.67890 109.49541 30106 ft 368 kts 212°
2026-04-27 08:03 18.65623 109.48466 30002 ft 357 kts 213°
2026-04-27 08:03 18.63397 109.47407 29882 ft 346 kts 214°
2026-04-27 08:03 18.61237 109.46378 29744 ft 336 kts 214°
2026-04-27 08:04 18.59141 109.45385 29636 ft 325 kts 214°
2026-04-27 08:04 18.57228 109.44305 29521 ft 301 kts 226°
2026-04-27 08:04 18.55711 109.42948 29407 ft 277 kts 236°
2026-04-27 08:04 18.54400 109.41541 29297 ft 264 kts 234°
2026-04-27 08:05 18.53119 109.40185 29187 ft 257 kts 234°
2026-04-27 08:05 18.51879 109.38855 28960 ft 263 kts 234°
2026-04-27 08:05 18.50532 109.37424 28097 ft 285 kts 233°
2026-04-27 08:05 18.49082 109.35923 27237 ft 299 kts 232°
2026-04-27 08:06 18.47563 109.34344 26414 ft 312 kts 231°
2026-04-27 08:06 18.45995 109.32701 25598 ft 324 kts 231°
2026-04-27 08:06 18.44362 109.30990 24784 ft 336 kts 230°
2026-04-27 08:06 18.42675 109.29228 23941 ft 346 kts 230°
2026-04-27 08:07 18.40949 109.27428 23067 ft 356 kts 229°
2026-04-27 08:07 18.39160 109.25563 22063 ft 365 kts 228°
2026-04-27 08:07 18.37341 109.23724 21103 ft 372 kts 227°
2026-04-27 08:07 18.35437 109.21826 20135 ft 379 kts 227°
2026-04-27 08:08 18.33523 109.19895 19190 ft 385 kts 227°
2026-04-27 08:08 18.31669 109.18044 18288 ft 390 kts 223°
2026-04-27 08:08 18.29418 109.16429 17231 ft 399 kts 212°
2026-04-27 08:08 18.26827 109.15292 16137 ft 408 kts 200°
2026-04-27 08:09 18.24021 109.14735 15093 ft 415 kts 187°
2026-04-27 08:09 18.21125 109.14814 14071 ft 420 kts 175°
2026-04-27 08:09 18.18275 109.15551 12991 ft 423 kts 162°
2026-04-27 08:09 18.15724 109.16866 11869 ft 396 kts 149°
2026-04-27 08:10 18.13634 109.18562 10810 ft 380 kts 137°
2026-04-27 08:10 18.11905 109.20634 9752 ft 371 kts 126°
2026-04-27 08:10 18.10616 109.22953 8609 ft 365 kts 115°
2026-04-27 08:10 18.09973 109.25496 7512 ft 360 kts 93°
2026-04-27 08:11 18.10293 109.28073 6469 ft 356 kts 70°
2026-04-27 08:11 18.11520 109.30293 5395 ft 351 kts 47°
2026-04-27 08:11 18.13458 109.31763 4563 ft 339 kts 20°
2026-04-27 08:11 18.15797 109.32123 4432 ft 352 kts 355°
2026-04-27 08:12 18.18104 109.31435 4254 ft 343 kts 330°
2026-04-27 08:12 18.19940 109.29898 4095 ft 344 kts 313°
2026-04-27 08:12 18.21517 109.28020 3923 ft 341 kts 308°
2026-04-27 08:12 18.23047 109.26116 3752 ft 341 kts 311°
2026-04-27 08:13 18.24709 109.24334 3689 ft 338 kts 317°
2026-04-27 08:13 18.26487 109.22792 3759 ft 318 kts 323°
2026-04-27 08:13 18.28244 109.21552 3807 ft 293 kts 328°
2026-04-27 08:13 18.29953 109.20483 3852 ft 281 kts 327°
2026-04-27 08:14 18.31472 109.19208 3894 ft 279 kts 313°
2026-04-27 08:14 18.32656 109.17646 3959 ft 277 kts 300°
2026-04-27 08:14 18.33478 109.15822 4026 ft 275 kts 289°
2026-04-27 08:14 18.34147 109.13930 4099 ft 275 kts 289°
2026-04-27 08:15 18.34791 109.12049 4130 ft 262 kts 278°
2026-04-27 08:15 18.34595 109.10332 3970 ft 223 kts 241°
2026-04-27 08:15 18.33691 109.09057 3332 ft 215 kts 223°
2026-04-27 08:15 18.32525 109.08177 2772 ft 201 kts 205°
2026-04-27 08:16 18.31316 109.07756 2343 ft 179 kts 188°
2026-04-27 08:16 18.30205 109.07707 2282 ft 147 kts 175°
2026-04-27 08:16 18.29242 109.07913 2288 ft 142 kts 163°
2026-04-27 08:16 18.28373 109.08328 2289 ft 139 kts 151°
2026-04-27 08:17 18.27602 109.08948 2289 ft 140 kts 139°
2026-04-27 08:17 18.27090 109.09809 2218 ft 145 kts 106°
2026-04-27 08:17 18.27053 109.10843 2273 ft 143 kts 101°
2026-04-27 08:17 18.26811 109.11849 2291 ft 144 kts 105°
2026-04-27 08:18 18.26654 109.12905 2276 ft 151 kts 94°
2026-04-27 08:18 18.26800 109.13995 2295 ft 150 kts 87°
2026-04-27 08:18 18.26907 109.15057 2301 ft 149 kts 85°
2026-04-27 08:18 18.27049 109.16139 2309 ft 151 kts 86°
2026-04-27 08:19 18.27179 109.17180 2315 ft 148 kts 85°
2026-04-27 08:19 18.27321 109.18269 2309 ft 150 kts 85°
2026-04-27 08:19 18.27406 109.18919 2306 ft 151 kts 86°
2026-04-27 08:19 18.27541 109.19954 2309 ft 149 kts 86°
2026-04-27 08:20 18.27680 109.21029 2306 ft 150 kts 85°
2026-04-27 08:20 18.27822 109.22116 2307 ft 150 kts 85°
2026-04-27 08:20 18.27963 109.23205 2310 ft 151 kts 85°
2026-04-27 08:20 18.28098 109.24278 2307 ft 149 kts 86°
2026-04-27 08:21 18.28236 109.25366 2309 ft 150 kts 85°
2026-04-27 08:21 18.28379 109.26458 2308 ft 152 kts 85°
2026-04-27 08:21 18.28521 109.27556 2277 ft 151 kts 84°
2026-04-27 08:21 18.28667 109.28663 2100 ft 155 kts 85°
2026-04-27 08:22 18.28813 109.29781 1902 ft 152 kts 85°
2026-04-27 08:22 18.28954 109.30866 1699 ft 150 kts 85°
2026-04-27 08:22 18.29096 109.31957 1514 ft 149 kts 86°
2026-04-27 08:22 18.29227 109.33041 1320 ft 150 kts 85°
2026-04-27 08:23 18.29368 109.34103 1122 ft 149 kts 86°
2026-04-27 08:23 18.29506 109.35191 941 ft 150 kts 85°
2026-04-27 08:23 18.29644 109.36245 762 ft 146 kts 85°
2026-04-27 08:23 18.29783 109.37313 544 ft 144 kts 85°
2026-04-27 08:24 18.29925 109.38371 392 ft 145 kts 78°
2026-04-27 08:24 18.30060 109.39401 152 ft 137 kts 83°
2026-04-27 08:24 18.30170 109.40325 83 ft 113 kts 83°
2026-04-27 08:24 18.30250 109.40938 87 ft 69 kts 82°
2026-04-27 08:25 18.30339 109.41288 93 ft 26 kts 44°
2026-04-27 08:25 18.30434 109.41306 94 ft 14 kts 339°
2026-04-27 08:25 18.30509 109.41227 94 ft 19 kts 310°
2026-04-27 08:25 18.30589 109.41083 93 ft 26 kts 280°
2026-04-27 08:26 18.30676 109.40902 89 ft 31 kts 321°
2026-04-27 08:26 18.30824 109.40850 92 ft 10 kts 351°
2026-04-27 08:26 18.30829 109.40849 91 ft 0 kts 351°